User: anonymous   Login
Location: Summit Observatory
(39.5293°N, 75.7290°W)
Time: 21:41:35
(UTC-05:00)
Language:

Gurwin Techsat 1B - Orbit

View from above orbital plane
View from above orbital plane
View from above satellite
View from above satellite

Ground track
Ground track

The orbit data is extracted from the following two-line orbital elements,

1 25397U 98043D   16040.51939803  .00000024  00000-0  29460-4 0  9990
2 25397  98.5527 348.9025 0001709  38.7763 321.3539 14.23581923913553
Epoch (UTC): 09 February 2016 12:27:55
Eccentricity: 0.0001709
inclination: 98.5527°
perigee height: 812 km
apogee height: 814 km
right ascension of ascending node: 348.9025°
argument of perigee: 38.7763°
revolutions per day: 14.23581923
mean anomaly at epoch: 321.3539°
orbit number at epoch: 91355

The dashed part of the orbit path shows where the satellite is in the earth's shadow,  

DLR